Weather History for Budapest / Lorinc, Hungary

Change the Weather History Date:

Sunday, May 11, 2014

  Actual Average Record
Temperature  
Mean Temperature 58 °F -  
Max Temperature 65 °F 73 °F - ()
Min Temperature 50 °F 53 °F - ()
Degree Days  
Heating Degree Days 8    
Growing Degree Days 8 (Base 50)    
Moisture  
Dew Point 51 °F    
Average Humidity 74    
Maximum Humidity 93    
Minimum Humidity 57    
Precipitation  
Precipitation 0.55 in 0.08 in - ()
Sea Level Pressure  
Sea Level Pressure 29.81 in    
Wind  
Wind Speed 4 mph ()    
Max Wind Speed 13 mph    
Max Gust Speed -    
Visibility 11.2 miles    
Events Fog , Rain , Thunderstorm    
T = Trace of Precipitation, MM = Missing Value Source: Averaged Metar Reports

Daily Weather History Graph

Daily Weather History Graph

Search for Another Location

Airport:

Trip Planner

Search our weather history database for the weather conditions in past years. The results will help you decide how hot, cold, wet, or windy it might be!

Date:

Astronomy

May. 11, 2014 Rise Set
Actual Time 5:12 AM CEST 8:08 PM CEST
Civil Twilight 4:36 AM CEST 8:43 PM CEST
Nautical Twilight 3:50 AM CEST 9:30 PM CEST
Astronomical Twilight 2:55 AM CEST 10:25 PM CEST
Moon 4:31 PM CEST (5/11) 3:23 AM CEST (5/11)
Length of Visible Light 16h 07m
Length of Day
14h 55m
Waxing Gibbous, 87% of the Moon is Illuminated
May 11
Waxing Gibbous
May 14
Full
May 21
Last Quarter
May 28
New
Jun 5
First Quarter

Hourly Weather History & Observations

Time (CEST) Temp. Dew Point Humidity Pressure Visibility Wind Dir Wind Speed Gust Speed Precip Events Conditions
12:00 AM 55 °F 44 °F 57% 29.91 in 22 mi SE 2.2 mph - -   Partly Cloudy
1:00 AM 54 °F 46 °F 65% 29.90 in 19 mi East 4.5 mph - -   Partly Cloudy
2:00 AM 54 °F 45 °F 62% 29.88 in 19 mi SE 4.5 mph - -   Partly Cloudy
3:00 AM 55 °F 44 °F 58% 29.88 in 19 mi ENE 2.2 mph - -   Partly Cloudy
4:00 AM 55 °F 45 °F 60% 29.86 in 19 mi ESE 2.2 mph - -   Partly Cloudy
5:00 AM 55 °F 46 °F 62% 29.86 in 19 mi ENE 2.2 mph - -   Partly Cloudy
6:00 AM 55 °F 48 °F 69% 29.85 in 22 mi ESE 4.5 mph - -   Partly Cloudy
7:00 AM 56 °F 47 °F 63% 29.86 in 19 mi SE 2.2 mph - - Rain Light Rain Showers
8:00 AM 56 °F 49 °F 70% 29.89 in 11 mi SW 2.2 mph - - Rain Light Rain Showers
9:00 AM 54 °F 52 °F 90% 29.88 in 5 mi SE 4.5 mph - - Rain Light Rain
10:00 AM 56 °F 54 °F 93% 29.84 in 6 mi ESE 6.7 mph - - Rain Light Rain
11:00 AM 59 °F 56 °F 85% 29.84 in 3 mi NNE 2.2 mph - - Fog Patches of Fog
12:00 PM 60 °F 56 °F 81% 29.83 in 6 mi NE 2.2 mph - -   Partly Cloudy
1:00 PM 63 °F 57 °F 74% 29.81 in 9 mi SE 4.5 mph - -   Partly Cloudy
2:00 PM 64 °F 56 °F 69% 29.80 in 16 mi ESE 2.2 mph - -   Partly Cloudy
3:00 PM 66 °F 55 °F 60% 29.77 in 12 mi Calm Calm - - Rain Light Rain Showers
4:00 PM 64 °F 57 °F 73% 29.73 in 9 mi NE 6.7 mph - - Rain Light Rain Showers
5:00 PM 63 °F 59 °F 83% 29.72 in 8 mi NNW 6.7 mph - -   Partly Cloudy
6:00 PM 62 °F 58 °F 81% 29.66 in 6 mi NE 8.9 mph - -   Partly Cloudy
7:00 PM 58 °F 55 °F 88% 29.67 in 5 mi NNW 11.2 mph - - Thunderstorm Light Thunderstorm
8:00 PM 55 °F 53 °F 89% 29.67 in 12 mi NW 11.2 mph - - Rain Light Rain
10:00 PM 50 °F 47 °F 87% 29.73 in 5 mi NNW 13.4 mph - - Rain Light Rain
11:00 PM 50 °F 47 °F 85% 29.74 in 9 mi NNW 8.9 mph - - Rain Light Rain